Location: Llanfihangel-Ystrad
(52.1833°N, 4.1667°W)
Time: 07:49:52
(UTC+00:00)

STARLINK-1085 - Pass Details

Date: 17 February 2020
Orbit: 374 x 385 km, 53.0° (Epoch: 31 March)

Event Time Altitude Azimuth Distance (km) Brightness Sun altitude
Exits shadow 06:40:49 - 228° (SW) 2,223 6.4 -8.0°
Reaches altitude 10° 06:42:50 10° 219° (SW) 1,415 5.4 -7.7°
Maximum altitude 06:45:47 36° 151° (SSE) 632 4.4 -7.3°
Drops below altitude 10° 06:48:43 10° 83° (E) 1,412 7.1 -6.8°
Sets 06:50:51 0° 74° (ENE) 2,265 8.0 -6.5°
